Weather Roundup
Issued by NWS Chicago, IL

Home | Current Version | Previous Version | Graphics & Text | Print | Product List | Glossary On
Versions: 1 2 3 4 5 6 7 8 9 10 11 12 13 14 15 16 17 18 19 20 21 22 23 24 25 26 27 28 29 30 31 32 33 34 35 36 37 38 39 40 41 42 43 44 45 46 47 48 49 50
872
NZUS59 KLOT 141403
HRRLOT

CHICAGO AREA WEATHER ROUNDUP
NATIONAL WEATHER SERVICE CHICAGO/ROMEOVILLE IL
800 AM CST SUN FEB 14 2016

NOTE: "FAIR" INDICATES FEW OR NO CLOUDS BELOW 12,000 FEET WITH NO
SIGNIFICANT WEATHER AND/OR OBSTRUCTIONS TO VISIBILITY.

* THESE STATIONS ARE NOT UNDER NWS QUALITY CONTROL. THEY ALSO MAY NOT
  REPORT WEATHER SUCH AS PRECIPITATION OR FOG.

ILZ005-006-012>014-019>023-141500-
NORTHEAST ILLINOIS

CITY           SKY/WX    TMP DP  RH WIND       PRES   REMARKS
OHARE          CLOUDY    15   2  56 SE18      30.32F WCI  -2
MIDWAY         CLOUDY    16   1  51 SE15      30.33F WCI   1
AURORA         CLOUDY    16   3  56 E15       30.28F WCI   1
WAUKEGAN       CLOUDY    15   6  67 SE15G21   30.31F WCI   0
DUPAGE AIRPORT CLOUDY    14   1  56 E14       30.28F WCI  -1
WHEELING       PTSUNNY   15   2  56 SE9       30.34F WCI   3
$$

WIZ051-052-058>065-066-070>072-141500-
SOUTHEAST WISCONSIN

CITY           SKY/WX    TMP DP  RH WIND       PRES   REMARKS
MILWAUKEE      CLOUDY    11   0  61 S9        30.31F WCI  -2
KENOSHA*       MOSUNNY   13   4  67 S6        30.31F WCI   4
RACINE*        CLOUDY    17   6  62 S13       30.33F WCI   4
BURLINGTON     CLOUDY    10   1  69 SE9       30.29F WCI  -4
WAUKESHA       MOSUNNY    9  -8  47 SE8       30.30F WCI  -4
$$

INZ001>003-010>013-019-020-141500-
NORTHWEST INDIANA

CITY           SKY/WX    TMP DP  RH WIND       PRES   REMARKS
GARY*          CLOUDY    16   3  57 SE10      30.37F WCI   3
MICHIGAN CITY* NOT AVBL
RENSSELAER*    NOT AVBL
VALPARAISO     CLOUDY    12   4  70 SE10      30.37F WCI  -1
$$

LMZ740>746-141500-
SOUTHERN LAKE MICHIGAN

STATION/POSITION TIME  SKY/WX   TEMP WIND        PRES    VSBY
                                AIR  DIR/SP/G
                 (UTC)          (F)  (DEG/KT/KT) (MB)    (MI)
HARRISON CRIB    1300            15  140/ 22/ 24   N/A
BURNHAM HARBOR   1400            16  150/ 16/ 18   N/A
CALUMET HARBOR   1300            14  120/  9/ 14 1027.8F
BURNS HARBOR     1300            12  140/  6/ 12 1029.5F
MICHIGAN CITY    1300             9  120/  9/ 10   N/A
$$

ABBREVIATIONS USED IN REMARKS
   TC - TEMPERATURE IN CELSIUS
  WCI - WIND CHILL INDEX
   HX - HEAT INDEX
  VSB - VISIBILITY
$$




USA.gov is the U.S. government's official web portal to all federal, state and local government web resources and services.